Carroll, IA

5:19 PM CST on December 14, 2017 (GMT -0600)
Neu

Weather History for KCIN - April, 2013

Change the Weather History Date:

Saturday, April 6, 2013

  Actual Average Record
Temperature  
Mean Temperature 52 °F -  
Max Temperature 62 °F 59 °F 88 °F (1991)
Min Temperature 39 °F 31 °F 8 °F (1982)
Degree Days  
Heating Degree Days 13    
Growing Degree Days 2 (Base 50)    
Moisture  
Dew Point 42 °F    
Average Humidity 63    
Maximum Humidity 93    
Minimum Humidity 45    
Precipitation  
Precipitation 0.01 in - - ()
Sea Level Pressure  
Sea Level Pressure 29.66 in    
Wind  
Wind Speed 15 mph (SW)    
Max Wind Speed 25 mph    
Max Gust Speed 33 mph    
Visibility 10 miles    
Events      
Averages and records for this station are not official NWS values.
T = Trace of Precipitation, MM = Missing Value Source: NWS Daily Summary

Daily Weather History Graph

Daily Weather History Graph

Search for Another Location

Airport or City:

Trip Planner

Search our weather history database for the weather conditions in past years. The results will help you decide how hot, cold, wet, or windy it might be!

Date:

Astronomy

Apr. 06, 2013 Rise Set
Actual Time 6:52 AM CDT 7:50 PM CDT
Civil Twilight 6:24 AM CDT 8:19 PM CDT
Nautical Twilight 5:50 AM CDT 8:53 PM CDT
Astronomical Twilight 5:15 AM CDT 9:28 PM CDT
Moon 4:40 AM CDT (4/6) 4:17 PM CDT (4/6)
Length of Visible Light 13h 54m
Length of Day
12h 57m
Waning Crescent, 15% of the Moon is Illuminated
Apr 6
Waning Crescent
Apr 10
New
Apr 18
First Quarter
Apr 25
Full
May 2
Last Quarter

Hourly Weather History & Observations

Time (CDT) Temp. Windchill Dew Point Humidity Pressure Visibility Wind Dir Wind Speed Gust Speed Precip Events Conditions
12:15 AM 53.6 °F - 41.0 °F 62% 29.75 in 10.0 mi SSE 16.1 mph - N/A   Clear
12:35 AM 53.6 °F - 41.0 °F 62% 29.74 in 10.0 mi SSE 17.3 mph - N/A   Clear
12:55 AM 51.8 °F - 41.0 °F 67% 29.73 in 10.0 mi SSE 15.0 mph - N/A   Clear
1:15 AM 51.8 °F - 41.0 °F 67% 29.73 in 10.0 mi SSE 11.5 mph - N/A   Clear
1:35 AM 51.8 °F - 41.0 °F 67% 29.73 in 10.0 mi SSE 8.1 mph - N/A   Clear
1:55 AM 53.6 °F - 41.0 °F 62% 29.73 in 10.0 mi SSE 12.7 mph - N/A   Clear
2:15 AM 55.4 °F - 41.0 °F 58% 29.72 in 10.0 mi South 16.1 mph - N/A   Clear
2:35 AM 55.4 °F - 41.0 °F 58% 29.71 in 10.0 mi South 15.0 mph 20.7 mph N/A   Clear
2:55 AM 53.6 °F - 41.0 °F 62% 29.70 in 10.0 mi South 12.7 mph - N/A   Clear
3:15 AM 53.6 °F - 41.0 °F 62% 29.69 in 10.0 mi South 11.5 mph - N/A   Partly Cloudy
3:35 AM 53.6 °F - 41.0 °F 62% 29.68 in 10.0 mi South 12.7 mph - N/A   Clear
3:55 AM 55.4 °F - 41.0 °F 58% 29.68 in 10.0 mi South 13.8 mph - N/A   Clear
4:15 AM 53.6 °F - 41.0 °F 62% 29.66 in 10.0 mi South 15.0 mph - N/A   Clear
4:35 AM 55.4 °F - 41.0 °F 58% 29.66 in 10.0 mi South 15.0 mph - N/A   Clear
4:55 AM 55.4 °F - 41.0 °F 58% 29.65 in 10.0 mi South 16.1 mph 23.0 mph N/A   Partly Cloudy
5:15 AM 55.4 °F - 41.0 °F 58% 29.64 in 10.0 mi South 17.3 mph - N/A   Scattered Clouds
5:35 AM 53.6 °F - 41.0 °F 62% 29.64 in 10.0 mi South 17.3 mph - N/A   Mostly Cloudy
5:55 AM 53.6 °F - 41.0 °F 62% 29.64 in 10.0 mi South 15.0 mph 21.9 mph N/A   Mostly Cloudy
6:15 AM 53.6 °F - 41.0 °F 62% 29.63 in 10.0 mi South 16.1 mph - N/A   Partly Cloudy
6:35 AM 53.6 °F - 41.0 °F 62% 29.63 in 10.0 mi South 17.3 mph 23.0 mph N/A   Partly Cloudy
6:55 AM 51.8 °F - 41.0 °F 67% 29.62 in 10.0 mi South 15.0 mph - N/A   Partly Cloudy
7:15 AM 51.8 °F - 41.0 °F 67% 29.62 in 10.0 mi South 13.8 mph - N/A   Clear
7:35 AM 51.8 °F - 41.0 °F 67% 29.61 in 10.0 mi South 16.1 mph - N/A   Clear
7:55 AM 51.8 °F - 41.0 °F 67% 29.60 in 10.0 mi South 15.0 mph - N/A   Clear
8:15 AM 53.6 °F - 41.0 °F 62% 29.60 in 10.0 mi South 16.1 mph 21.9 mph N/A   Clear
8:35 AM 55.4 °F - 41.0 °F 58% 29.59 in 10.0 mi South 19.6 mph - N/A   Clear
8:55 AM 55.4 °F - 42.8 °F 63% 29.59 in 10.0 mi SSW 18.4 mph 24.2 mph N/A   Clear
9:15 AM 57.2 °F - 42.8 °F 59% 29.58 in 10.0 mi SSW 23.0 mph - N/A   Clear
9:35 AM 57.2 °F - 42.8 °F 59% 29.57 in 10.0 mi SSW 25.3 mph 31.1 mph N/A   Clear
9:55 AM 57.2 °F - 42.8 °F 59% 29.57 in 10.0 mi SSW 25.3 mph 33.4 mph N/A   Clear
10:15 AM 57.2 °F - 42.8 °F 59% 29.57 in 10.0 mi SSW 25.3 mph - N/A   Clear
10:35 AM 57.2 °F - 42.8 °F 59% 29.57 in 10.0 mi SW 23.0 mph 32.2 mph N/A   Clear
10:55 AM 57.2 °F - 44.6 °F 63% 29.57 in 10.0 mi SW 23.0 mph 29.9 mph N/A   Partly Cloudy
11:15 AM 57.2 °F - 44.6 °F 63% 29.57 in 10.0 mi SW 19.6 mph - N/A   Partly Cloudy
11:35 AM 59.0 °F - 44.6 °F 59% 29.57 in 10.0 mi WSW 19.6 mph 25.3 mph N/A   Clear
11:55 AM 62.6 °F - 46.4 °F 55% 29.56 in 10.0 mi WSW 19.6 mph 28.8 mph N/A   Clear
12:15 PM 60.8 °F - 44.6 °F 55% 29.57 in 10.0 mi WSW 18.4 mph 25.3 mph N/A   Clear
12:35 PM 60.8 °F - 44.6 °F 55% 29.58 in 10.0 mi West 16.1 mph - N/A   Clear
12:55 PM 59.0 °F - 44.6 °F 59% 29.58 in 10.0 mi West 16.1 mph 23.0 mph N/A   Mostly Cloudy
1:15 PM 57.2 °F - 42.8 °F 59% 29.59 in 10.0 mi West 17.3 mph - N/A   Mostly Cloudy
1:35 PM 53.6 °F - 42.8 °F 67% 29.61 in 10.0 mi West 19.6 mph - N/A   Mostly Cloudy
1:55 PM 50.0 °F - 44.6 °F 82% 29.59 in 6.0 mi WNW 15.0 mph 24.2 mph 0.01 in   Light Drizzle
2:15 PM 51.8 °F - 48.2 °F 88% 29.61 in 9.0 mi West 23.0 mph - N/A   Partly Cloudy
2:35 PM 51.8 °F - 44.6 °F 76% 29.61 in 10.0 mi North - - N/A   Scattered Clouds
2:55 PM 53.6 °F - 44.6 °F 72% 29.62 in 10.0 mi West 23.0 mph - N/A   Partly Cloudy
3:15 PM 55.4 °F - 44.6 °F 67% 29.62 in 10.0 mi WNW 16.1 mph 24.2 mph N/A   Partly Cloudy
3:35 PM 55.4 °F - 44.6 °F 67% 29.62 in 10.0 mi West 17.3 mph - N/A   Mostly Cloudy
3:55 PM 57.2 °F - 42.8 °F 59% 29.62 in 10.0 mi West 16.1 mph 24.2 mph N/A   Scattered Clouds
4:15 PM 59.0 °F - 42.8 °F 55% 29.62 in 10.0 mi WNW 19.6 mph 26.5 mph N/A   Partly Cloudy
4:35 PM 60.8 °F - 42.8 °F 52% 29.62 in 10.0 mi WNW 15.0 mph 23.0 mph N/A   Clear
4:55 PM 62.6 °F - 42.8 °F 48% 29.63 in 10.0 mi WNW 18.4 mph 24.2 mph N/A   Clear
5:15 PM 60.8 °F - 42.8 °F 52% 29.63 in 10.0 mi WNW 19.6 mph 25.3 mph N/A   Clear
5:35 PM 60.8 °F - 41.0 °F 48% 29.64 in 10.0 mi WNW 20.7 mph 32.2 mph N/A   Partly Cloudy
5:55 PM 62.6 °F - 41.0 °F 45% 29.65 in 10.0 mi NW 20.7 mph 26.5 mph N/A   Clear
6:15 PM 62.6 °F - 42.8 °F 48% 29.66 in 10.0 mi NW 18.4 mph 24.2 mph N/A   Clear
6:35 PM 62.6 °F - 42.8 °F 48% 29.66 in 10.0 mi NW 15.0 mph 21.9 mph N/A   Clear
6:55 PM 62.6 °F - 42.8 °F 48% 29.67 in 10.0 mi NW 11.5 mph - N/A   Clear
7:15 PM 60.8 °F - 42.8 °F 52% 29.68 in 10.0 mi NNW 10.4 mph - N/A   Clear
7:35 PM 59.0 °F - 42.8 °F 55% 29.68 in 10.0 mi NW 10.4 mph - N/A   Clear
7:55 PM 59.0 °F - 41.0 °F 51% 29.69 in 10.0 mi NW 10.4 mph - N/A   Clear
8:15 PM 55.4 °F - 41.0 °F 58% 29.70 in 10.0 mi NW 8.1 mph - N/A   Clear
8:35 PM 53.6 °F - 41.0 °F 62% 29.71 in 10.0 mi NW 5.8 mph - N/A   Scattered Clouds
8:55 PM 51.8 °F - 41.0 °F 67% 29.73 in 10.0 mi NW 6.9 mph - N/A   Partly Cloudy
9:15 PM 53.6 °F - 41.0 °F 62% 29.74 in 10.0 mi NW 9.2 mph - N/A   Mostly Cloudy
9:35 PM 53.6 °F - 42.8 °F 67% 29.75 in 10.0 mi NNW 9.2 mph - N/A   Mostly Cloudy
9:55 PM 51.8 °F - 41.0 °F 67% 29.76 in 10.0 mi North 11.5 mph - N/A   Partly Cloudy
10:15 PM 48.2 °F - 41.0 °F 76% 29.76 in 10.0 mi NNE 8.1 mph - N/A   Clear
10:35 PM 46.4 °F 43.5 °F 41.0 °F 81% 29.77 in 10.0 mi North 5.8 mph - N/A   Clear
10:55 PM 42.8 °F - 39.2 °F 87% 29.78 in 10.0 mi Calm Calm - N/A   Clear
11:15 PM 44.6 °F - 41.0 °F 87% 29.78 in 10.0 mi Calm Calm - N/A   Clear
11:35 PM 44.6 °F - 41.0 °F 87% 29.79 in 10.0 mi Calm Calm - N/A   Clear
11:55 PM 39.2 °F - 37.4 °F 93% 29.79 in 8.0 mi Calm Calm - N/A   Clear